• In Belgien
  • Länderverzeichnis
  • Für 7 Tage
  • Wassertemperatur
  • Satellitenkarten
  • Wetterkarte
  • Widgets
  • user-avatar
    Anmelden

    Stündliche Wetter Oudenaarde

    Heute, 14 November, Mittwoch

    Zeit Temperatur Niederschläge Wind Luftdruck Luftfeuchtigkeit
    00:00 +8°C° 0 mm 3 m/S 770 mmHg 91%
    01:00 +8°C° 0 mm 3 m/S 769 mmHg 91%
    02:00 +7°C° 0 mm 3 m/S 769 mmHg 91%
    03:00 +6°C° 0 mm 4 m/S 769 mmHg 92%
    04:00 +6°C° 0 mm 4 m/S 769 mmHg 92%
    05:00 +6°C° 0 mm 4 m/S 768 mmHg 92%
    06:00 +5°C° 0 mm 4 m/S 768 mmHg 93%
    07:00 +6°C° 0 mm 4 m/S 768 mmHg 90%
    08:00 +7°C° 0 mm 4 m/S 768 mmHg 87%
    09:00 +7°C° 0 mm 5 m/S 768 mmHg 85%
    10:00 +10°C° 0 mm 4 m/S 768 mmHg 80%
    11:00 +11°C° 0 mm 4 m/S 768 mmHg 75%
    12:00 +12°C° 0 mm 4 m/S 768 mmHg 71%
    13:00 +12°C° 0 mm 4 m/S 768 mmHg 72%
    14:00 +12°C° 0 mm 3 m/S 767 mmHg 73%
    15:00 +11°C° 0 mm 3 m/S 767 mmHg 74%
    16:00 +10°C° 0 mm 3 m/S 767 mmHg 78%
    17:00 +9°C° 0 mm 3 m/S 767 mmHg 81%
    18:00 +8°C° 0 mm 3 m/S 767 mmHg 85%
    19:00 +8°C° 0 mm 3 m/S 767 mmHg 83%
    20:00 +8°C° 0 mm 3 m/S 767 mmHg 82%
    21:00 +8°C° 0 mm 3 m/S 767 mmHg 81%
    22:00 +7°C° 0 mm 3 m/S 766 mmHg 80%
    23:00 +7°C° 0 mm 3 m/S 766 mmHg 80%

    Morgen, 15 November, Donnerstag

    Zeit Temperatur Niederschläge Wind Luftdruck Luftfeuchtigkeit
    00:00 +7°C° 0 mm 3 m/S 766 mmHg 80%
    01:00 +7°C° 0 mm 3 m/S 766 mmHg 80%
    02:00 +7°C° 0 mm 3 m/S 766 mmHg 81%
    03:00 +7°C° 0 mm 3 m/S 766 mmHg 81%
    04:00 +7°C° 0 mm 3 m/S 766 mmHg 80%
    05:00 +7°C° 0 mm 3 m/S 766 mmHg 79%
    06:00 +7°C° 0 mm 3 m/S 766 mmHg 79%
    07:00 +8°C° 0 mm 3 m/S 766 mmHg 75%
    08:00 +8°C° 0 mm 3 m/S 766 mmHg 72%
    09:00 +9°C° 0 mm 3 m/S 766 mmHg 69%
    10:00 +11°C° 0 mm 3 m/S 766 mmHg 66%
    11:00 +12°C° 0 mm 3 m/S 766 mmHg 63%
    12:00 +13°C° 0 mm 3 m/S 766 mmHg 59%
    13:00 +13°C° 0 mm 3 m/S 765 mmHg 63%
    14:00 +14°C° 0 mm 2 m/S 765 mmHg 66%
    15:00 +13°C° 0 mm 2 m/S 765 mmHg 69%
    16:00 +12°C° 0 mm 2 m/S 765 mmHg 73%
    17:00 +10°C° 0 mm 2 m/S 765 mmHg 77%
    18:00 +9°C° 0 mm 3 m/S 765 mmHg 81%
    19:00 +9°C° 0 mm 3 m/S 766 mmHg 83%
    20:00 +8°C° 0 mm 3 m/S 766 mmHg 85%
    21:00 +8°C° 0 mm 2 m/S 766 mmHg 87%
    22:00 +8°C° 0 mm 2 m/S 766 mmHg 88%
    23:00 +8°C° 0 mm 2 m/S 766 mmHg 89%

    übermorgen, 16 November, Freitag

    Zeit Temperatur Niederschläge Wind Luftdruck Luftfeuchtigkeit
    00:00 +7°C° 0 mm 2 m/S 766 mmHg 90%
    01:00 +7°C° 0 mm 2 m/S 766 mmHg 91%
    02:00 +7°C° 0 mm 2 m/S 766 mmHg 91%
    03:00 +7°C° 0 mm 2 m/S 767 mmHg 91%
    04:00 +7°C° 0 mm 2 m/S 767 mmHg 91%
    05:00 +7°C° 0 mm 2 m/S 767 mmHg 91%
    06:00 +8°C° 0 mm 1 m/S 767 mmHg 91%
    07:00 +7°C° 0 mm 2 m/S 767 mmHg 88%
    08:00 +8°C° 0 mm 2 m/S 767 mmHg 86%
    09:00 +9°C° 0 mm 2 m/S 768 mmHg 83%
    10:00 +10°C° 0 mm 2 m/S 767 mmHg 78%
    11:00 +12°C° 0 mm 2 m/S 767 mmHg 73%
    12:00 +14°C° 0 mm 2 m/S 767 mmHg 68%
    13:00 +13°C° 0 mm 2 m/S 767 mmHg 69%
    14:00 +13°C° 0 mm 2 m/S 767 mmHg 71%
    15:00 +13°C° 0 mm 2 m/S 767 mmHg 72%
    16:00 +12°C° 0 mm 2 m/S 768 mmHg 74%
    17:00 +10°C° 0 mm 3 m/S 768 mmHg 76%
    18:00 +8°C° 0 mm 3 m/S 768 mmHg 77%
    19:00 +8°C° 0 mm 3 m/S 768 mmHg 75%
    20:00 +8°C° 0 mm 3 m/S 768 mmHg 73%
    21:00 +7°C° 0 mm 3 m/S 769 mmHg 71%
    22:00 +7°C° 0 mm 3 m/S 769 mmHg 69%
    23:00 +5°C° 0 mm 3 m/S 769 mmHg 67%

    17 November, Samstag

    Zeit Temperatur Niederschläge Wind Luftdruck Luftfeuchtigkeit
    00:00 +5°C° 0 mm 3 m/S 769 mmHg 65%
    01:00 +4°C° 0 mm 3 m/S 769 mmHg 65%
    02:00 +4°C° 0 mm 3 m/S 769 mmHg 66%
    03:00 +3°C° 0 mm 3 m/S 768 mmHg 66%
    04:00 +3°C° 0 mm 3 m/S 768 mmHg 67%
    05:00 +3°C° 0 mm 4 m/S 768 mmHg 68%
    06:00 +1°C° 0 mm 4 m/S 769 mmHg 68%
    07:00 +3°C° 0 mm 4 m/S 769 mmHg 67%
    08:00 +3°C° 0 mm 5 m/S 769 mmHg 65%
    09:00 +5°C° 0 mm 5 m/S 769 mmHg 63%
    10:00 +5°C° 0 mm 6 m/S 769 mmHg 61%
    11:00 +7°C° 0 mm 6 m/S 768 mmHg 58%
    12:00 +8°C° 0 mm 6 m/S 768 mmHg 56%
    13:00 +8°C° 0 mm 6 m/S 768 mmHg 56%
    14:00 +8°C° 0 mm 6 m/S 768 mmHg 57%
    15:00 +8°C° 0 mm 6 m/S 767 mmHg 58%
    16:00 +7°C° 0 mm 6 m/S 768 mmHg 59%
    17:00 +7°C° 0 mm 6 m/S 768 mmHg 59%
    18:00 +5°C° 0 mm 6 m/S 768 mmHg 60%
    19:00 +5°C° 0 mm 6 m/S 768 mmHg 60%
    20:00 +5°C° 0 mm 5 m/S 768 mmHg 61%
    21:00 +5°C° 0 mm 5 m/S 767 mmHg 61%
    22:00 +5°C° 0 mm 5 m/S 767 mmHg 61%
    23:00 +3°C° 0 mm 5 m/S 767 mmHg 61%

    18 November, Sonntag

    Zeit Temperatur Niederschläge Wind Luftdruck Luftfeuchtigkeit
    00:00 +3°C° 0 mm 6 m/S 767 mmHg 61%
    01:00 +3°C° 0 mm 6 m/S 767 mmHg 60%
    02:00 +2°C° 0 mm 6 m/S 767 mmHg 58%
    03:00 +2°C° 0 mm 6 m/S 766 mmHg 56%
    04:00 +2°C° 0 mm 6 m/S 766 mmHg 55%
    05:00 +1°C° 0 mm 6 m/S 766 mmHg 54%
    06:00 +1°C° 0 mm 6 m/S 766 mmHg 52%
    07:00 +2°C° 0 mm 6 m/S 766 mmHg 52%
    08:00 +2°C° 0 mm 7 m/S 766 mmHg 53%
    09:00 +3°C° 0 mm 7 m/S 766 mmHg 53%
    10:00 +4°C° 0 mm 7 m/S 766 mmHg 52%
    11:00 +5°C° 0 mm 7 m/S 765 mmHg 50%
    12:00 +6°C° 0 mm 7 m/S 765 mmHg 49%
    13:00 +6°C° 0 mm 7 m/S 765 mmHg 50%
    14:00 +7°C° 0 mm 6 m/S 765 mmHg 52%
    15:00 +5°C° 0 mm 6 m/S 764 mmHg 54%
    16:00 +5°C° 0 mm 6 m/S 764 mmHg 55%
    17:00 +4°C° 0 mm 6 m/S 764 mmHg 56%
    18:00 +3°C° 0 mm 6 m/S 764 mmHg 58%
    19:00 +3°C° 0 mm 5 m/S 764 mmHg 59%
    20:00 +3°C° 0 mm 5 m/S 765 mmHg 61%
    21:00 +2°C° 0 mm 5 m/S 765 mmHg 63%
    22:00 +2°C° 0 mm 5 m/S 765 mmHg 64%
    23:00 +2°C° 0 mm 5 m/S 765 mmHg 65%

    19 November, Montag

    Zeit Temperatur Niederschläge Wind Luftdruck Luftfeuchtigkeit
    00:00 +1°C° 0 mm 5 m/S 764 mmHg 66%
    01:00 +1°C° 0 mm 5 m/S 764 mmHg 67%
    02:00 +1°C° 0 mm 5 m/S 764 mmHg 68%
    03:00 +1°C° 0 mm 5 m/S 764 mmHg 68%
    04:00 +1°C° 0 mm 5 m/S 764 mmHg 69%
    05:00 0°C° 0 mm 5 m/S 764 mmHg 69%
    06:00 0°C° 0 mm 5 m/S 764 mmHg 69%
    07:00 +1°C° 0 mm 6 m/S 764 mmHg 66%
    08:00 +1°C° 0 mm 6 m/S 764 mmHg 62%
    09:00 +2°C° 0 mm 6 m/S 764 mmHg 58%
    10:00 +3°C° 0 mm 7 m/S 764 mmHg 55%
    11:00 +4°C° 0 mm 7 m/S 764 mmHg 52%
    12:00 +6°C° 0 mm 7 m/S 764 mmHg 49%
    13:00 +5°C° 0 mm 6 m/S 764 mmHg 50%
    14:00 +5°C° 0 mm 6 m/S 764 mmHg 52%
    15:00 +5°C° 0 mm 6 m/S 764 mmHg 54%
    16:00 +4°C° 0 mm 6 m/S 764 mmHg 57%
    17:00 +4°C° 0 mm 6 m/S 764 mmHg 61%
    18:00 +3°C° 0 mm 6 m/S 764 mmHg 65%
    19:00 +3°C° 0 mm 6 m/S 764 mmHg 67%
    20:00 +2°C° 0 mm 6 m/S 764 mmHg 69%
    21:00 +2°C° 0 mm 6 m/S 765 mmHg 70%
    22:00 +1°C° 0 mm 6 m/S 765 mmHg 71%
    23:00 +1°C° 0 mm 6 m/S 765 mmHg 71%
    Mehr zeigen